CZ-2D R/B

Last updated on Sun Apr 12 2026 00:02:17 GMT+0000 (Coordinated Universal Time)

1 28738U 05024B 26101.51588828 .00042225 00000+0 45917-3 0 9997 2 28738 97.3556 117.9375 0002479 222.6853 137.4213 15.63348875144907
UTC large
Height (km)
Speed (km/s)
/
Latitude / Longitude
Inclination (degrees)
Orbital Period (minutes)
Azimuth
Elevation
Range (km)
Doppler Factor

Next 0 passes for location: London (51.5072 / 0.1276)

Sorry there are no passes over London.
CZ-2D R/B